Page, AZ

8:45 PM MDT on October 18, 2017 (GMT -0600)
Page Municipal

Weather History for KPGA - March, 2014

Change the Weather History Date:

Sunday, March 30, 2014

  Actual Average Record
Temperature  
Mean Temperature 58 °F -  
Max Temperature 70 °F 61 °F 82 °F (2015)
Min Temperature 46 °F 38 °F 25 °F (1977)
Degree Days  
Heating Degree Days 7    
Growing Degree Days 8 (Base 50)    
Moisture  
Dew Point 20 °F    
Average Humidity 23    
Maximum Humidity 39    
Minimum Humidity 8    
Precipitation  
Precipitation 0.00 in - - ()
Sea Level Pressure  
Sea Level Pressure 29.73 in    
Wind  
Wind Speed 12 mph (SW)    
Max Wind Speed 29 mph    
Max Gust Speed 48 mph    
Visibility 8 miles    
Events      
Averages and records for this station are not official NWS values.
T = Trace of Precipitation, MM = Missing Value Source: NWS Daily Summary

Daily Weather History Graph

Daily Weather History Graph

Search for Another Location

Airport or City:

Trip Planner

Search our weather history database for the weather conditions in past years. The results will help you decide how hot, cold, wet, or windy it might be!

Date:

Astronomy

Mar. 30, 2014 Rise Set
Actual Time 6:14 AM MST 6:46 PM MST
Civil Twilight 5:48 AM MST 7:12 PM MST
Nautical Twilight 5:17 AM MST 7:43 PM MST
Astronomical Twilight 4:46 AM MST 8:14 PM MST
Moon 6:02 AM MST (3/30) 7:02 PM MST (3/30)
Length of Visible Light 13h 24m
Length of Day
12h 32m
New Moon, 0% of the Moon is Illuminated
Mar 30
New Moon
Apr 7
First Quarter
Apr 15
Full
Apr 22
Last Quarter
Apr 28
New

Hourly Weather History & Observations

Time (MST) Temp. Dew Point Humidity Pressure Visibility Wind Dir Wind Speed Gust Speed Precip Events Conditions
12:53 AM 60.1 °F 18.0 °F 20% 29.78 in 10.0 mi SSW 6.9 mph - N/A   Clear
1:53 AM 61.0 °F 16.0 °F 17% 29.76 in 10.0 mi SSW 6.9 mph - N/A   Clear
2:53 AM 60.1 °F 16.0 °F 18% 29.72 in 10.0 mi South 6.9 mph - N/A   Clear
3:53 AM 59.0 °F 16.0 °F 19% 29.70 in 10.0 mi SSW 5.8 mph - N/A   Clear
4:53 AM 60.1 °F 17.1 °F 19% 29.69 in 10.0 mi SSW 6.9 mph - N/A   Clear
5:53 AM 57.9 °F 18.0 °F 21% 29.68 in 10.0 mi South 4.6 mph - N/A   Clear
6:53 AM 57.9 °F 18.0 °F 21% 29.68 in 10.0 mi South 5.8 mph - N/A   Clear
7:53 AM 59.0 °F 19.9 °F 22% 29.69 in 10.0 mi SW 6.9 mph - N/A   Clear
8:53 AM 64.0 °F 19.9 °F 18% 29.66 in 10.0 mi SSW 10.4 mph 21.9 mph N/A   Clear
9:53 AM 64.9 °F 21.9 °F 19% 29.60 in 7.0 mi SSW 18.4 mph 27.6 mph N/A   Clear
10:50 AM 68.0 °F 19.4 °F 16% 29.68 in 2.0 mi SSW 28.8 mph 46.0 mph N/A   Haze
10:53 AM 68.0 °F 19.9 °F 16% 29.53 in 2.5 mi South 25.3 mph 46.0 mph N/A   Haze
11:01 AM 68.0 °F 19.9 °F 16% 29.67 in 3.0 mi South 26.5 mph 48.3 mph N/A   Haze
11:53 AM 69.1 °F 18.0 °F 14% 29.50 in 6.0 mi SW 20.7 mph 40.3 mph N/A   Haze
12:28 PM 57.9 °F 28.0 °F 32% 29.68 in 5.0 mi West 20.7 mph 40.3 mph N/A   Haze
12:53 PM 57.9 °F 28.9 °F 33% 29.57 in 7.0 mi West 18.4 mph 35.7 mph N/A   Mostly Cloudy
1:53 PM 55.9 °F 28.9 °F 36% 29.64 in 9.0 mi West 23.0 mph 39.1 mph N/A   Mostly Cloudy
2:53 PM 57.0 °F 24.1 °F 28% 29.68 in 10.0 mi West 19.6 mph 34.5 mph N/A   Clear
3:53 PM 57.9 °F 10.9 °F 16% 29.69 in 10.0 mi West 16.1 mph 28.8 mph N/A   Clear
4:53 PM 54.0 °F 21.0 °F 28% 29.75 in 9.0 mi NW 19.6 mph 38.0 mph N/A   Clear
5:53 PM 55.9 °F 14.0 °F 19% 29.80 in 10.0 mi West 16.1 mph 28.8 mph N/A   Clear
6:53 PM 51.1 °F 23.0 °F 33% 29.85 in 10.0 mi NW 11.5 mph 23.0 mph N/A   Clear
7:53 PM 52.0 °F 19.0 °F 27% 29.86 in 10.0 mi WSW 11.5 mph 18.4 mph N/A   Clear
8:53 PM 50.0 °F 19.9 °F 31% 29.88 in 10.0 mi NW 9.2 mph - N/A   Clear
9:53 PM 46.9 °F 21.0 °F 36% 29.91 in 10.0 mi ESE 6.9 mph - N/A   Clear
10:53 PM 46.9 °F 21.9 °F 37% 29.91 in 10.0 mi West 4.6 mph - N/A   Clear
11:53 PM 46.9 °F 23.0 °F 39% 29.92 in 10.0 mi West 3.5 mph - N/A   Clear